Location: Unspecified
(0.0000°N, 0.0000°E)
Time: 14:09:55
(UTC+00:00)

Altair - Pass Details

Date: 14 March 2026
Orbit: 1502 x 1682 km, 47.2° (Epoch: 18 April)

Event Time Altitude Azimuth Distance (km) Brightness Sun altitude
Rises 18:16:51 0° 215° (SW) 4,891 10.7 -1.9°
Reaches altitude 10° 18:20:03 10° 213° (SSW) 3,884 10.2 -2.7°
Maximum altitude 18:29:56 72° 129° (SE) 1,664 7.6 -5.2°
Drops below altitude 10° 18:39:23 10° 46° (NE) 3,733 9.1 -7.6°
Sets 18:42:24 0° 45° (NE) 4,693 9.6 -8.3°
